Grand Canyon, AZ

8:56 AM MST on August 17, 2017 (GMT -0700)
Grand Canyon National Park

Weather History for KGCN - January, 2013

Change the Weather History Date:

Friday, January 18, 2013

  Actual Average Record
Temperature  
Mean Temperature 29 °F -  
Max Temperature 44 °F 44 °F 78 °F (2003)
Min Temperature 12 °F 16 °F -9 °F (2001)
Degree Days  
Heating Degree Days 36    
Moisture  
Dew Point 11 °F    
Average Humidity 54    
Maximum Humidity 81    
Minimum Humidity 31    
Precipitation  
Precipitation 0.00 in - - ()
Sea Level Pressure  
Sea Level Pressure 30.36 in    
Wind  
Wind Speed 5 mph (NE)    
Max Wind Speed 14 mph    
Max Gust Speed -    
Visibility 10 miles    
Events      
Averages and records for this station are not official NWS values.
T = Trace of Precipitation, MM = Missing Value Source: NWS Daily Summary

Daily Weather History Graph

Daily Weather History Graph

Search for Another Location

Airport or City:

Trip Planner

Search our weather history database for the weather conditions in past years. The results will help you decide how hot, cold, wet, or windy it might be!

Date:

Astronomy

Jan. 18, 2013 Rise Set
Actual Time 7:37 AM MST 5:41 PM MST
Civil Twilight 7:09 AM MST 6:09 PM MST
Nautical Twilight 6:38 AM MST 6:40 PM MST
Astronomical Twilight 6:07 AM MST 7:11 PM MST
Moon 11:33 AM MST (1/18) 12:20 AM MST (1/18)
Length of Visible Light 10h 59m
Length of Day
10h 04m
Waxing Crescent, 48% of the Moon is Illuminated
Jan 18
Waxing Crescent
Jan 18
First Quarter
Jan 26
Full
Feb 3
Last Quarter
Feb 10
New

Hourly Weather History & Observations

Time (MST) Temp. Windchill Dew Point Humidity Pressure Visibility Wind Dir Wind Speed Gust Speed Precip Events Conditions
12:54 AM 24.1 °F - 9.0 °F 53% 30.37 in 10.0 mi Calm Calm - N/A   Clear
1:54 AM 24.1 °F 19.7 °F 9.0 °F 53% 30.37 in 10.0 mi ENE 3.5 mph - N/A   Clear
2:54 AM 26.1 °F 20.5 °F 10.0 °F 51% 30.36 in 10.0 mi East 4.6 mph - N/A   Clear
3:54 AM 23.0 °F 17.0 °F 9.0 °F 55% 30.36 in 10.0 mi NE 4.6 mph - N/A   Clear
4:54 AM 19.9 °F 13.4 °F 8.1 °F 60% 30.37 in 10.0 mi ENE 4.6 mph - N/A   Clear
5:54 AM 17.1 °F 7.6 °F 7.0 °F 65% 30.40 in 10.0 mi NE 6.9 mph - N/A   Clear
6:54 AM 21.9 °F 14.5 °F 9.0 °F 58% 30.38 in 10.0 mi NE 5.8 mph - N/A   Clear
7:54 AM 19.0 °F 12.3 °F 9.0 °F 65% 30.39 in 10.0 mi NE 4.6 mph - N/A   Clear
8:54 AM 28.9 °F 21.9 °F 10.9 °F 47% 30.38 in 10.0 mi ENE 6.9 mph - N/A   Clear
9:54 AM 35.1 °F 28.6 °F 12.9 °F 40% 30.37 in 10.0 mi ENE 8.1 mph - N/A   Clear
10:54 AM 39.0 °F 32.3 °F 14.0 °F 36% 30.36 in 10.0 mi ENE 10.4 mph - N/A   Clear
11:54 AM 39.9 °F 32.5 °F 15.1 °F 36% 30.34 in 10.0 mi NE 12.7 mph - N/A   Clear
12:54 PM 41.0 °F 35.2 °F 14.0 °F 33% 30.30 in 10.0 mi NE 9.2 mph - N/A   Clear
1:54 PM 44.1 °F 39.5 °F 15.1 °F 31% 30.28 in 10.0 mi NE 8.1 mph - N/A   Clear
2:54 PM 43.0 °F 36.8 °F 15.1 °F 32% 30.27 in 10.0 mi NE 11.5 mph - N/A   Clear
3:54 PM 37.9 °F 29.6 °F 16.0 °F 41% 30.31 in 10.0 mi NE 13.8 mph - N/A   Clear
4:54 PM 36.0 °F 28.5 °F 16.0 °F 44% 30.33 in 10.0 mi ENE 10.4 mph - N/A   Clear
5:54 PM 30.0 °F 21.7 °F 14.0 °F 51% 30.37 in 10.0 mi ENE 9.2 mph - N/A   Clear
6:54 PM 24.1 °F 19.7 °F 12.0 °F 60% 30.38 in 10.0 mi ENE 3.5 mph - N/A   Clear
7:54 PM 18.0 °F - 10.9 °F 74% 30.43 in 10.0 mi Calm Calm - N/A   Clear
8:54 PM 17.1 °F - 10.0 °F 74% 30.40 in 10.0 mi Calm Calm - N/A   Clear
9:54 PM 15.1 °F - 9.0 °F 77% 30.38 in 10.0 mi Calm Calm - N/A   Clear
10:54 PM 14.0 °F - 8.1 °F 77% 30.37 in 10.0 mi Calm Calm - N/A   Clear
11:54 PM 12.9 °F - 8.1 °F 81% 30.36 in 10.0 mi Calm Calm - N/A   Clear